User: anonymous   Login
Location: ??????
(55.0357°N, 38.6195°E)
Time: 15:28:07
(UTC+00:00)
Language:

Cosmos 972 Rocket - Orbit

View from above orbital plane
View from above orbital plane
View from above satellite
View from above satellite

Ground track
Ground track

The orbit data is extracted from the following two-line orbital elements,

1 10541U 77123B   24176.94268366  .00000067  00000-0  46897-4 0  9996
2 10541  75.8362 110.8523 0299473 309.4167  48.0801 13.89119150356180
Epoch (UTC): 24 June 2024 22:37:27
Eccentricity: 0.0299473
inclination: 75.8362°
perigee height: 713 km
apogee height: 1150 km
right ascension of ascending node: 110.8523°
argument of perigee: 309.4167°
revolutions per day: 13.89119150
mean anomaly at epoch: 48.0801°
orbit number at epoch: 35618

The dashed part of the orbit path shows where the satellite is in the earth's shadow,  

DLR